Location: Worth Mountain WMA
(34.9569°N, 81.4819°W)
Time: 01:07:01
(UTC-05:00)

Amateur Radio Satellites - All Passes

Search period start: 20 November 2017 00:37
Search period end: 21 November 2017 00:37
Location: Worth Mountain WMA, 34.9569°N, 81.4819°W

Satellite Date Start Highest point End Downlink Frequencies (MHz)
Time Altitude Azimuth
BUGSAT 1 20 Nov 00:37:39 00:40:24 18° 95° (E) 00:43:09 437.445
AIST 2D 20 Nov 00:40:05 00:41:52 13° 291° (WNW) 00:43:39 435.315
50 SAT 20 Nov 00:40:26 00:42:58 21° 72° (ENE) 00:45:30 437.505
PCSat 20 Nov 00:42:25 00:47:50 85° 115° (ESE) 00:53:17 145.827
Oscar 19 20 Nov 00:46:47 00:49:24 14° 93° (E) 00:52:01 437.125/150
Gurwin Techsat 1B 20 Nov 00:59:50 01:02:20 13° 92° (E) 01:04:49 435.225
DUCHIFAT 1 20 Nov 01:13:37 01:17:17 31° 288° (WNW) 01:20:57 145.980
EO-79 20 Nov 01:19:27 01:22:36 21° 291° (WNW) 01:25:45 145.935-145.965
NANOSAT C BR1 20 Nov 01:23:44 01:26:53 21° 290° (WNW) 01:30:03 145.865
DX 1 20 Nov 01:24:35 01:28:57 85° 75° (ENE) 01:33:20 434.975-435.025
O/OREOS (USA 219) 20 Nov 01:28:51 01:30:30 12° 262° (W) 01:32:10 437.305
POLYITAN 1 20 Nov 01:35:05 01:37:22 14° 293° (WNW) 01:39:39 437.675
RS-15 20 Nov 02:01:18 02:09:45 21° 30° (NNE) 02:17:53 29.354- 29.394
M-CUBED/EXP-1 PRIME 20 Nov 02:02:36 02:04:36 13° 97° (E) 02:06:37 437.505
UKube-1 20 Nov 02:10:09 02:14:17 45° 260° (W) 02:18:26 .
BUGSAT 1 20 Nov 02:12:19 02:15:44 27° 289° (WNW) 02:19:07 437.445
50 SAT 20 Nov 02:13:16 02:15:00 14° 265° (W) 02:16:44 437.505
Oscar 19 20 Nov 02:23:57 02:29:00 57° 287° (WNW) 02:34:03 437.125/150
PCSat 20 Nov 02:29:20 02:31:54 13° 313° (NW) 02:34:28 145.827
BEESAT 20 Nov 02:30:59 02:35:18 35° 71° (ENE) 02:39:37 436.000
Gurwin Techsat 1B 20 Nov 02:37:23 02:42:38 62° 287° (WNW) 02:47:52 435.225
ITUPSAT 1 20 Nov 02:39:27 02:43:57 42° 72° (ENE) 02:48:28 437.325
BEESAT 2 20 Nov 02:56:10 02:58:27 15° 109° (ESE) 03:00:44 435.950
MOZHAYETS 4 20 Nov 03:05:37 03:10:11 74° 259° (W) 03:14:45
CUBESAT XI-V 20 Nov 03:14:05 03:17:56 27° 70° (ENE) 03:21:48 437.345
AO-7 20 Nov 03:16:30 03:24:13 40° 100° (E) 03:31:52 .
nSIGHT-1 20 Nov 03:16:46 03:18:38 14° 29° (NNE) 03:20:29 .
BEESAT 3 20 Nov 03:23:46 03:27:40 59° 300° (WNW) 03:31:38 437.485
M-CUBED/EXP-1 PRIME 20 Nov 03:34:41 03:39:09 57° 290° (WNW) 03:43:42 437.505
ISS 20 Nov 03:55:36 03:58:21 24° 34° (NE) 04:01:06 437.550
BEESAT 20 Nov 04:09:37 04:13:05 20° 265° (W) 04:16:35 436.000
ITAMSAT 1 20 Nov 04:13:10 04:18:24 86° 103° (ESE) 04:23:35 435.822/435.867
RS-15 20 Nov 04:13:15 04:25:03 68° 57° (ENE) 04:36:08 29.354- 29.394
ITUPSAT 1 20 Nov 04:18:53 04:21:55 17° 266° (W) 04:24:56 437.325
BEESAT 2 20 Nov 04:32:04 04:35:48 37° 304° (WNW) 04:39:35 435.950
AO-85 20 Nov 04:39:43 04:43:34 89° 118° (ESE) 04:47:33 145.980
CUBESAT XI-V 20 Nov 04:51:32 04:55:12 24° 264° (W) 04:58:55 437.345
nSIGHT-1 20 Nov 04:51:59 04:55:08 61° 225° (SW) 04:58:15 .
KKS-1 20 Nov 05:07:25 05:11:52 70° 258° (WSW) 05:16:21 437.445
AO-7 20 Nov 05:09:13 05:16:51 42° 296° (WNW) 05:24:30 .
YUBILEINY 20 Nov 05:13:13 05:21:06 40° 87° (E) 05:29:02 435.215
DOVE 4 20 Nov 05:24:35 05:29:48 79° 102° (ESE) 05:34:41 437.250
XW-2C 20 Nov 05:31:01 05:32:51 13° 93° (E) 05:34:40 145.795 - 145.815
LilacSat-2 20 Nov 05:31:02 05:33:11 14° 94° (E) 05:35:20 437.200
ISS 20 Nov 05:31:59 05:34:47 27° 229° (SW) 05:37:34 437.550
STARS 20 Nov 05:35:26 05:39:52 88° 257° (WSW) 05:44:19 437.465
CUTE-I 20 Nov 05:37:06 05:40:22 16° 93° (E) 05:43:37 437.470
XW-2F 20 Nov 05:42:20 05:44:53 17° 95° (E) 05:47:25 145.980 - 146.000
ITAMSAT 1 20 Nov 05:56:24 05:57:04 10° 299° (WNW) 05:57:45 435.822/435.867
KAITUO 1B 20 Nov 06:11:48 06:15:11 31° 97° (E) 06:18:34 145.475/437.950
SO-50 20 Nov 06:17:24 06:20:21 16° 48° (NE) 06:23:18 436.795
XW-2D 20 Nov 06:23:02 06:26:51 70° 102° (ESE) 06:30:38 145.860 - 145.880
RS-15 20 Nov 06:27:04 06:36:23 30° 257° (WSW) 06:45:25 29.354- 29.394
HO-68 20 Nov 06:33:36 06:39:29 27° 96° (E) 06:45:20 435.675
XW-2B 20 Nov 06:37:49 06:41:37 76° 283° (WNW) 06:45:26 145.730 - 145.750
CUTE 1.7 + AOD 2 20 Nov 06:39:49 06:43:06 21° 95° (E) 06:46:22 437.475
FO-29 20 Nov 06:44:40 06:48:19 15° 57° (ENE) 06:52:08 435.910
STRAND 1 20 Nov 06:51:05 06:56:07 56° 73° (ENE) 07:01:09 437.568
NUDT-PHONESAT 20 Nov 06:58:27 07:02:06 58° 284° (WNW) 07:05:45 437.300
XW-2C 20 Nov 07:03:38 07:07:05 33° 286° (WNW) 07:10:31 145.795 - 145.815
LilacSat-2 20 Nov 07:04:05 07:07:28 30° 287° (WNW) 07:10:52 437.200
DOVE 4 20 Nov 07:05:20 07:06:38 11° 298° (WNW) 07:07:54 437.250
YUBILEINY 20 Nov 07:09:46 07:17:46 39° 284° (WNW) 07:25:52 435.215
SEEDS 20 Nov 07:12:24 07:16:10 30° 97° (E) 07:19:54 437.485
CUTE-I 20 Nov 07:15:28 07:20:40 53° 287° (WNW) 07:25:50 437.470
XW-2F 20 Nov 07:15:47 07:18:56 25° 288° (WNW) 07:22:04 145.980 - 146.000
CUBEBUG 2 20 Nov 07:22:27 07:26:18 36° 98° (E) 07:30:07 437.445
AAUSAT CUBESAT 2 20 Nov 07:23:52 07:26:35 17° 94° (E) 07:29:17 437.432
AO-73 20 Nov 07:33:17 07:34:03 10° 92° (E) 07:34:49 145.935
KAITUO 1B 20 Nov 07:46:49 07:48:50 14° 291° (WNW) 07:50:51 145.475/437.950
Oscar 11 20 Nov 07:50:25 07:52:04 12° 92° (E) 07:53:42 .
SO-50 20 Nov 07:56:32 08:01:07 55° 244° (WSW) 08:05:43 436.795
ZACube-1 20 Nov 08:14:47 08:18:43 41° 99° (E) 08:22:40 437.345
CUTE 1.7 + AOD 2 20 Nov 08:15:17 08:18:51 26° 289° (WNW) 08:22:24 437.475
HO-68 20 Nov 08:20:31 08:27:23 50° 291° (WNW) 08:34:13 435.675
UWE-3 20 Nov 08:21:38 08:25:46 75° 284° (WNW) 08:29:54 435.000/436.395/437.385
FO-29 20 Nov 08:25:45 08:32:08 87° 257° (WSW) 08:39:25 435.910
STRAND 1 20 Nov 08:32:53 08:35:34 14° 267° (W) 08:38:16 437.568
XW-2A 20 Nov 08:39:35 08:42:39 34° 286° (WNW) 08:45:43 145.665 - 145.685
SEEDS 20 Nov 08:48:38 08:51:35 19° 291° (WNW) 08:54:31 437.485
UNISAT 6 20 Nov 08:54:32 08:58:37 32° 72° (ENE) 09:02:37 437.425
AAUSAT CUBESAT 2 20 Nov 08:58:20 09:02:03 32° 288° (WNW) 09:05:46 437.432
TIGRISAT 20 Nov 08:59:11 09:03:17 33° 72° (ENE) 09:07:20 435.000
CUBEBUG 2 20 Nov 09:00:18 09:02:34 15° 293° (WNW) 09:04:50 437.445
AO-73 20 Nov 09:06:31 09:10:30 48° 285° (WNW) 09:14:31 145.935
Oscar 11 20 Nov 09:24:15 09:28:24 47° 286° (WNW) 09:32:33 .
Max Valier Satellite 20 Nov 09:26:03 09:28:40 19° 95° (E) 09:31:18 145.860
EO-88 20 Nov 09:27:52 09:29:37 13° 94° (E) 09:31:21 145.990 - 145.960
PCSat 20 Nov 09:33:54 09:38:48 34° 57° (ENE) 09:43:39 145.827
DELFI C3 20 Nov 09:39:25 09:43:16 44° 99° (E) 09:47:04 145.870
ZACube-1 20 Nov 09:52:40 09:54:36 13° 293° (WNW) 09:56:32 437.345
FALCONSAT 3 20 Nov 10:02:34 10:05:56 35° 157° (SSE) 10:09:20 435.103
PRISM 20 Nov 10:14:25 10:18:32 88° 260° (W) 10:22:41 437.425
FO-29 20 Nov 10:16:19 10:18:17 11° 275° (W) 10:20:17 435.910
UNISAT 6 20 Nov 10:31:55 10:35:18 20° 265° (W) 10:38:38 437.425
EO-79 20 Nov 10:33:54 10:36:01 14° 67° (ENE) 10:38:07 145.935-145.965
TIGRISAT 20 Nov 10:36:39 10:39:57 20° 265° (W) 10:43:15 435.000
NANOSAT C BR1 20 Nov 10:37:59 10:40:00 13° 67° (ENE) 10:42:00 145.865
POLYITAN 1 20 Nov 10:47:49 10:50:54 20° 69° (ENE) 10:53:59 437.675
Max Valier Satellite 20 Nov 10:59:34 11:02:23 21° 289° (WNW) 11:05:13 145.860
EO-88 20 Nov 11:00:04 11:03:17 30° 287° (WNW) 11:06:30 145.990 - 145.960
AIST 2D 20 Nov 11:09:01 11:12:26 62° 260° (W) 11:15:52 435.315
QB50P2 20 Nov 11:10:00 11:13:59 40° 73° (ENE) 11:17:58 145.880/145.840
DELFI C3 20 Nov 11:16:11 11:17:33 11° 293° (WNW) 11:18:54 145.870
PCSat 20 Nov 11:17:27 11:22:01 28° 253° (WSW) 11:26:35 145.827
LO-87 20 Nov 11:27:34 11:31:03 56° 100° (E) 11:34:30 145.935 - 145.965
FALCONSAT 3 20 Nov 11:41:11 11:44:53 88° 175° (S) 11:48:35 435.103
BEESAT 3 20 Nov 11:43:41 11:46:59 25° 54° (NE) 11:50:15 437.485
SPROUT 20 Nov 11:57:33 12:00:25 18° 94° (E) 12:03:16 437.525
Oscar 19 20 Nov 12:00:41 12:03:38 16° 65° (ENE) 12:06:35 437.125/150
DUCHIFAT 1 20 Nov 12:01:03 12:05:15 70° 259° (WSW) 12:09:27 145.980
ESTCUBE 1 20 Nov 12:02:23 12:06:56 82° 285° (WNW) 12:11:28 437.505/2401.250
EO-79 20 Nov 12:07:18 12:11:21 43° 261° (W) 12:15:24 145.935-145.965
NANOSAT C BR1 20 Nov 12:11:14 12:15:16 44° 261° (W) 12:19:19 145.865
Gurwin Techsat 1B 20 Nov 12:17:34 12:20:52 17° 65° (ENE) 12:24:11 435.225
POLYITAN 1 20 Nov 12:22:46 12:26:27 28° 263° (W) 12:30:09 437.675
VELOX 1 20 Nov 12:27:54 12:31:35 25° 96° (E) 12:35:14 145.980
QB50P2 20 Nov 12:47:44 12:49:53 14° 267° (W) 12:52:02 145.880/145.840
BEESAT 2 20 Nov 12:52:20 12:56:09 40° 57° (ENE) 12:59:53 435.950
BUGSAT 1 20 Nov 12:57:28 13:01:40 66° 259° (W) 13:05:50 437.445
AO-85 20 Nov 13:13:05 13:17:22 32° 55° (NE) 13:21:55 145.980
DX 1 20 Nov 13:16:56 13:20:00 18° 95° (E) 13:23:03 434.975-435.025
FALCONSAT 3 20 Nov 13:20:19 13:24:01 90° 14° (NNE) 13:27:44 435.103
BEESAT 3 20 Nov 13:21:23 13:24:21 21° 249° (WSW) 13:27:16 437.485
50 SAT 20 Nov 13:32:16 13:35:05 27° 98° (E) 13:37:52 437.505
SPROUT 20 Nov 13:32:35 13:36:19 31° 288° (WNW) 13:40:03 437.525
Oscar 19 20 Nov 13:37:27 13:42:26 54° 259° (W) 13:47:28 437.125/150
ITAMSAT 1 20 Nov 13:53:43 13:54:13 10° 61° (ENE) 13:54:43 435.822/435.867
Gurwin Techsat 1B 20 Nov 13:55:08 14:00:19 54° 259° (W) 14:05:33 435.225
O/OREOS (USA 219) 20 Nov 13:55:46 14:00:20 71° 290° (WNW) 14:04:57 437.305
UKube-1 20 Nov 14:00:14 14:04:14 35° 99° (E) 14:08:11 .
VELOX 1 20 Nov 14:04:17 14:07:53 24° 290° (WNW) 14:11:28 145.980
NO-84 20 Nov 14:11:40 14:13:42 15° 120° (ESE) 14:15:49 435.350 FM
AO-7 20 Nov 14:11:58 14:19:33 42° 64° (ENE) 14:27:07 .
M-CUBED/EXP-1 PRIME 20 Nov 14:17:28 14:20:54 76° 253° (WSW) 14:24:37 437.505
BEESAT 2 20 Nov 14:31:29 14:33:27 13° 252° (WSW) 14:35:23 435.950
BEESAT 20 Nov 14:36:42 14:37:58 11° 92° (E) 14:39:13 436.000
JUGNU 20 Nov 14:38:44 14:40:51 12° 167° (SSE) 14:42:58 437.505
ITUPSAT 1 20 Nov 14:44:44 14:47:09 14° 93° (E) 14:49:32 437.325
DX 1 20 Nov 14:52:18 14:56:12 32° 289° (WNW) 15:00:04 434.975-435.025
AO-85 20 Nov 14:53:36 14:57:41 27° 248° (WSW) 15:01:58 145.980
FALCONSAT 3 20 Nov 14:59:32 15:02:59 37° 202° (SSW) 15:06:25 435.103
MOZHAYETS 4 20 Nov 15:04:04 15:08:09 32° 97° (E) 15:12:14
50 SAT 20 Nov 15:06:01 15:06:51 11° 292° (WNW) 15:07:41 437.505
ITAMSAT 1 20 Nov 15:27:38 15:32:52 87° 255° (WSW) 15:38:09 435.822/435.867
YUBILEINY 20 Nov 15:29:01 15:33:54 16° 65° (ENE) 15:38:46 435.215
UKube-1 20 Nov 15:37:08 15:39:55 17° 293° (WNW) 15:42:41 .
NO-84 20 Nov 15:47:07 15:50:36 44° 317° (NW) 15:54:22 435.350 FM
AO-7 20 Nov 16:04:37 16:12:12 39° 260° (W) 16:19:51 .
BEESAT 20 Nov 16:11:23 16:16:04 61° 286° (WNW) 16:20:44 436.000
ITUPSAT 1 20 Nov 16:20:36 16:25:11 50° 287° (WNW) 16:29:45 437.325
JUGNU 20 Nov 16:25:22 16:29:06 17° 177° (S) 16:32:50 437.505
DOVE 4 20 Nov 16:25:45 16:30:33 54° 74° (ENE) 16:35:36 437.250
MOZHAYETS 4 20 Nov 16:41:42 16:45:03 21° 291° (WNW) 16:48:25
CUBESAT XI-V 20 Nov 16:49:59 16:54:41 77° 284° (WNW) 16:59:22 437.345
CUTE-I 20 Nov 16:55:35 16:59:26 21° 66° (ENE) 17:03:19 437.470
HO-68 20 Nov 17:01:20 17:05:00 15° 57° (ENE) 17:08:39 435.675
XW-2D 20 Nov 17:01:36 17:04:20 20° 71° (ENE) 17:07:05 145.860 - 145.880
KKS-1 20 Nov 17:01:57 17:05:48 28° 97° (E) 17:09:36 437.445
XW-2B 20 Nov 17:15:50 17:19:04 28° 73° (ENE) 17:22:18 145.730 - 145.750
YUBILEINY 20 Nov 17:23:00 17:31:54 89° 84° (E) 17:40:44 435.215
STARS 20 Nov 17:28:46 17:32:05 21° 96° (E) 17:35:21 437.465
CUTE 1.7 + AOD 2 20 Nov 17:32:03 17:32:27 10° 65° (ENE) 17:32:52 437.475
NUDT-PHONESAT 20 Nov 17:34:01 17:37:18 32° 73° (ENE) 17:40:35 437.300
XW-2C 20 Nov 17:40:51 17:44:32 66° 77° (ENE) 17:48:15 145.795 - 145.815
LilacSat-2 20 Nov 17:41:52 17:45:36 75° 76° (ENE) 17:49:21 437.200
XW-2F 20 Nov 17:52:14 17:55:56 88° 77° (ENE) 17:59:40 145.980 - 146.000
SEEDS 20 Nov 18:02:04 18:04:15 14° 68° (ENE) 18:06:28 437.485
DOVE 4 20 Nov 18:05:49 18:08:32 15° 269° (W) 18:11:20 437.250
SRMSAT 20 Nov 18:08:52 18:11:58 15° 170° (S) 18:15:05 437.500
JUGNU 20 Nov 18:13:53 18:17:22 16° 187° (S) 18:20:51 437.505
CUBEBUG 2 20 Nov 18:17:15 18:20:51 23° 70° (ENE) 18:24:24 437.445
KAITUO 1B 20 Nov 18:21:35 18:25:07 46° 261° (W) 18:28:41 145.475/437.950
RS-15 20 Nov 18:30:18 18:42:14 62° 111° (ESE) 18:54:14 29.354- 29.394
CUTE-I 20 Nov 18:34:01 18:39:06 44° 261° (W) 18:44:15 437.470
XW-2D 20 Nov 18:35:30 18:38:21 21° 264° (W) 18:41:14 145.860 - 145.880
KKS-1 20 Nov 18:38:42 18:42:10 22° 291° (WNW) 18:45:36 437.445
HO-68 20 Nov 18:44:28 18:51:40 87° 77° (ENE) 18:58:55 435.675
XW-2B 20 Nov 18:51:10 18:53:15 14° 266° (W) 18:55:20 145.730 - 145.750
CUTE 1.7 + AOD 2 20 Nov 19:03:37 19:07:43 57° 260° (W) 19:11:53 437.475
STARS 20 Nov 19:04:36 19:08:22 28° 290° (WNW) 19:12:06 437.465
STRAND 1 20 Nov 19:05:31 19:09:41 25° 96° (E) 19:13:47 437.568
XW-2A 20 Nov 19:06:59 19:10:01 35° 74° (ENE) 19:13:05 145.665 - 145.685
ZACube-1 20 Nov 19:07:36 19:11:00 23° 71° (ENE) 19:14:21 437.345
NUDT-PHONESAT 20 Nov 19:09:50 19:11:13 12° 267° (W) 19:12:35 437.300
UWE-3 20 Nov 19:14:39 19:19:03 56° 75° (ENE) 19:23:21 435.000/436.395/437.385
YUBILEINY 20 Nov 19:22:51 19:27:23 15° 282° (WNW) 19:31:54 435.215
SEEDS 20 Nov 19:35:40 19:39:33 39° 262° (W) 19:43:29 437.485
FO-29 20 Nov 19:40:35 19:45:50 19° 89° (E) 19:50:49 435.910
AAUSAT CUBESAT 2 20 Nov 19:44:07 19:48:13 80° 257° (WSW) 19:52:22 437.432
nSIGHT-1 20 Nov 19:51:43 19:53:56 17° 129° (SE) 19:56:09 .
CUBEBUG 2 20 Nov 19:53:17 19:57:17 28° 263° (W) 20:01:12 437.445
SRMSAT 20 Nov 19:56:27 20:00:24 18° 180° (S) 20:04:21 437.500
AO-73 20 Nov 19:57:57 20:02:17 80° 79° (E) 20:06:33 145.935
Oscar 11 20 Nov 20:15:05 20:19:22 82° 79° (E) 20:23:41 .
DELFI C3 20 Nov 20:22:15 20:24:46 16° 69° (ENE) 20:27:17 145.870
ISS 20 Nov 20:32:45 20:35:51 41° 133° (SE) 20:38:57 437.550
HO-68 20 Nov 20:36:50 20:40:06 13° 269° (W) 20:43:24 435.675
ZACube-1 20 Nov 20:43:30 20:47:07 25° 264° (W) 20:50:42 437.345
RS-15 20 Nov 20:43:57 20:55:17 41° 313° (NW) 21:06:36 29.354- 29.394
STRAND 1 20 Nov 20:44:18 20:48:49 32° 290° (WNW) 20:53:18 437.568
UWE-3 20 Nov 20:54:44 20:55:43 11° 268° (W) 20:56:43 435.000/436.395/437.385
FO-29 20 Nov 21:23:37 21:31:27 74° 287° (WNW) 21:38:45 435.910
nSIGHT-1 20 Nov 21:26:59 21:29:57 34° 323° (NW) 21:32:56 .
EO-88 20 Nov 21:33:32 21:37:05 61° 76° (ENE) 21:40:40 145.990 - 145.960
Max Valier Satellite 20 Nov 21:33:49 21:37:27 86° 257° (WSW) 21:41:07 145.860
SRMSAT 20 Nov 21:45:37 21:48:50 15° 190° (S) 21:52:05 437.500
DELFI C3 20 Nov 21:55:45 21:59:13 30° 263° (W) 22:02:44 145.870
PRISM 20 Nov 22:00:02 22:02:37 16° 94° (E) 22:05:11 437.425
LO-87 20 Nov 22:01:25 22:03:21 14° 69° (ENE) 22:05:18 145.935 - 145.965
SO-50 20 Nov 22:07:20 22:11:47 78° 300° (WNW) 22:16:17 436.795
ISS 20 Nov 22:10:03 22:12:26 19° 328° (NNW) 22:14:51 437.550
NO-84 20 Nov 22:22:29 22:26:15 29° 39° (NE) 22:29:57 435.350 FM
UNISAT 6 20 Nov 22:25:25 22:29:41 72° 284° (WNW) 22:33:54 437.425
TIGRISAT 20 Nov 22:29:56 22:34:10 70° 284° (WNW) 22:38:22 435.000
O/OREOS (USA 219) 20 Nov 22:32:28 22:33:51 11° 56° (ENE) 22:35:13 437.305
AIST 2D 20 Nov 22:38:47 22:39:58 11° 93° (E) 22:41:07 435.315
ESTCUBE 1 20 Nov 22:58:16 23:02:39 59° 75° (ENE) 23:07:04 437.505/2401.250
RS-15 20 Nov 23:06:20 23:12:41 15° 344° (NNW) 23:18:58 29.354- 29.394
FO-29 20 Nov 23:11:37 23:15:02 14° 304° (NW) 23:18:23 435.910
VELOX 1 20 Nov 23:22:45 23:25:23 16° 67° (ENE) 23:28:02 145.980
LO-87 20 Nov 23:33:20 23:36:28 28° 263° (W) 23:39:37 145.935 - 145.965
PRISM 20 Nov 23:34:11 23:37:56 33° 288° (WNW) 23:41:39 437.425
DUCHIFAT 1 20 Nov 23:48:45 23:52:01 22° 96° (E) 23:55:16 145.980
EO-79 20 Nov 23:55:02 23:58:54 35° 98° (E) 00:02:44 145.935-145.965
NANOSAT C BR1 20 Nov 23:58:37 00:02:26 34° 98° (E) 00:06:13 145.865
NO-84 20 Nov 23:59:45 00:03:36 33° 235° (SW) 00:07:21 435.350 FM
O/OREOS (USA 219) 21 Nov 00:09:11 00:13:42 64° 253° (WSW) 00:18:08 437.305
POLYITAN 1 21 Nov 00:10:01 00:14:08 55° 101° (E) 00:18:14 437.675
AIST 2D 21 Nov 00:10:02 00:13:11 31° 286° (WNW) 00:16:21 435.315
DX 1 21 Nov 00:11:00 00:12:21 11° 65° (ENE) 00:13:43 434.975-435.025
PCSat 21 Nov 00:11:40 00:16:58 60° 112° (ESE) 00:22:18 145.827
SPROUT 21 Nov 00:21:32 00:25:47 66° 259° (W) 00:30:04 437.525
